Showing default

IRIDIUM 108, 41924

Orbit data source: Space-Track

IRIDIUM 108, 41924 is a payload satellite owned by Iridium (US) in LEO that was launched on Sat, 14 Jan 2017 UTC via an FALCON 9 launch vehicle from the Air Force Western Test Range (AFWTR). Payload-class satellites include a variety of spacecraft equipped with specific instruments for various scientific and technological missions. These include communications satellites like Starlink; space stations such as the ISS; scientific satellites like the Hubble; Earth observation satellites from companies like Planet Labs, Umbra, and HawkEye 360; GPS; miniature CubeSats for education and research; and military/defense satellites.

Loading next visibility...
Identifier
41924, 2017-003H
Orbit
LEO
Country
Flag of USUS
Related business
Manufacturer
OATK SSG Gilbert
Mission
Operational Commercial Communications
Bus & Motor
ELITEBUS, Unknown motor
Mass
860 kg wet, 700 kg dry
Launch date (UTC)
2017-01-14 (9 years ago)
Launch vehicle
FALCON 9
Launch site
Air Force Western Test Range (AFWTR)
Object type
Payload
Rocket body
Debris
Shape & HBR
Trap Box + 2 Pan, 4.8 m
Radar Cross Section
10.154 m², Large (>1 m²)

Expand to show TLE details & history
Last TLE update: 11 hours ago

TLE from 11 hours ago
0 IRIDIUM 108
1 41924U 17003H   26035.26549153  .00000136  00000-0  41403-4 0  9998
2 41924  86.3967 112.3635 0002081 100.2235 259.9196 14.34216887476053
Epoch: 2026-02-04T06:22Z
TLE epoch observation values (Epoch: 2026-02-04T06:22:18.468Z)
Latitude
0.00004°
Longitude
-117.648°
Altitude
780.982 km
Speed
7.463 km/s
True Right ascension
07h 29m 27s
True Declination
0° 00' 00"
Sunlit
Object was in full shadow at epoch
Visualization orbit readout
Latitude
Unknown
Longitude
Unknown
Altitude
Unknown
Speed
Unknown
Apparent Right ascension
Unknown
Apparent Declination
Unknown
Sunlit
N/A
Visualization observer readout
Local Sidereal Time
19:04:56
Azimuth
Unknown
Elevation
Unknown
Doppler factor
Unknown
Orbital elements
Apogee altitude
776.123 km
Perigee altitude
773.146 km
Semi-major axis
7,152.772 km
Eccentricity
0.00021
Inclination
86.3967°
RAAN
112.3635°
Arg. of periapsis
100.2235°
True anomaly
259.89612°
Mean anomaly
259.9196°
Eccentric anomaly
259.90786°
Mean motion
3.58783 °/min
Orbital period
100.34 mins
BSTAR
0.000041403
Loading maneuver chart data...
Computing Atmospheric mass density...
Loading historical data...
Loading historical data...
Loading historical data...
Loading historical data...
Loading historical data...
Loading historical data...
Loading historical data...

Documentation

Showing up to 5 results
|